| time (UTC) | temp F | wind direction | speed MPH | gust MPH | rain 1hr in | rain 24hr in | rain mn in | humidity % | barometer mb |
| 20260510080051 | 53 | 61 | 2.0 | 4.0 | 0.00 | 0.00 | 0.00 | 81 | 1017.7 |
| 20260510074549 | 52 | 69 | 1.0 | 4.0 | 0.00 | 0.00 | 0.00 | 83 | 1017.7 |
| 20260510073055 | 52 | 65 | 1.0 | 4.0 | 0.00 | 0.00 | 0.00 | 83 | 1017.8 |
| 20260510071544 | 51 | 40 | 1.0 | 4.0 | 0.00 | 0.00 | 0.00 | 84 | 1017.7 |
| 20260510070043 | 51 | 49 | 1.0 | 4.0 | 0.00 | 0.00 | 0.00 | 84 | 1017.9 |
| 20260510064553 | 51 | 38 | 1.0 | 3.0 | 0.00 | 0.00 | 0.00 | 85 | 1018.0 |
| 20260510063045 | 51 | 57 | 1.0 | 4.0 | 0.00 | 0.00 | 0.00 | 84 | 1018.1 |
| 20260510061546 | 51 | 36 | 1.0 | 4.0 | 0.00 | 0.00 | 0.00 | 84 | 1018.0 |
| 20260510060047 | 51 | 54 | 1.0 | 4.0 | 0.00 | 0.00 | 0.00 | 84 | 1017.9 |
| 20260510054540 | 51 | 61 | 1.0 | 4.0 | 0.00 | 0.00 | 0.00 | 85 | 1017.8 |
| 20260510053046 | 51 | 49 | 1.0 | 4.0 | 0.00 | 0.00 | 0.00 | 85 | 1017.8 |
| 20260510051545 | 50 | 63 | 1.0 | 3.0 | 0.00 | 0.00 | 0.00 | 86 | 1018.0 |
| 20260510050038 | 50 | 63 | 0.0 | 2.0 | 0.00 | 0.00 | 0.00 | 87 | 1018.0 |
| 20260510044553 | 50 | 63 | 1.0 | 3.0 | 0.00 | 0.00 | 0.00 | 87 | 1017.8 |
| 20260510043047 | 50 | 63 | 0.0 | 3.0 | 0.00 | 0.00 | 0.00 | 87 | 1017.8 |
| 20260510041537 | 50 | 60 | 1.0 | 3.0 | 0.00 | 0.00 | 0.00 | 87 | 1017.8 |
| 20260510040042 | 50 | 61 | 0.0 | 2.0 | 0.00 | 0.00 | 0.00 | 86 | 1017.8 |
| 20260510034535 | 51 | 60 | 1.0 | 3.0 | 0.00 | 0.00 | 0.00 | 87 | 1017.7 |
| 20260510033048 | 51 | 66 | 0.0 | 3.0 | 0.00 | 0.00 | 0.00 | 87 | 1017.8 |
| 20260510031537 | 51 | 66 | 0.0 | 3.0 | 0.00 | 0.00 | 0.00 | 87 | 1017.9 |
| 20260510030042 | 51 | 66 | 0.0 | 2.0 | 0.00 | 0.00 | 0.00 | 86 | 1017.8 |
| 20260510024532 | 51 | 66 | 0.0 | 2.0 | 0.00 | 0.00 | 0.00 | 86 | 1018.0 |
| 20260510023028 | 51 | 66 | 0.0 | 2.0 | 0.00 | 0.00 | 0.00 | 85 | 1018.0 |
| 20260510021527 | 51 | 66 | 0.0 | 2.0 | 0.00 | 0.00 | 0.00 | 83 | 1018.1 |
| 20260510020029 | 51 | 66 | 0.0 | 3.0 | 0.00 | 0.00 | 0.00 | 82 | 1018.0 |
| 20260510014531 | 51 | 66 | 1.0 | 2.0 | 0.00 | 0.00 | 0.00 | 81 | 1017.9 |
| 20260510013024 | 51 | 66 | 0.0 | 2.0 | 0.00 | 0.00 | 0.00 | 80 | 1018.1 |
| 20260510011522 | 51 | 66 | 1.0 | 2.0 | 0.00 | 0.00 | 0.00 | 80 | 1018.2 |
| 20260510010026 | 51 | 66 | 0.0 | 2.0 | 0.00 | 0.00 | 0.00 | 80 | 1018.3 |
| 20260510004520 | 51 | 66 | 0.0 | 2.0 | 0.00 | 0.00 | 0.00 | 80 | 1018.3 |
| 20260510003019 | 51 | 66 | 0.0 | 0.0 | 0.00 | 0.00 | 0.00 | 80 | 1018.3 |
| 20260510001518 | 51 | 66 | 0.0 | 0.0 | 0.00 | 0.00 | 0.00 | 80 | 1018.3 |
| 20260510000019 | 51 | 66 | 0.0 | 2.0 | 0.00 | 0.00 | 0.00 | 80 | 1018.4 |
| 20260509234524 | 51 | 66 | 1.0 | 2.0 | 0.00 | 0.00 | 0.00 | 80 | 1018.5 |
| 20260509233014 | 51 | 66 | 0.0 | 2.0 | 0.00 | 0.00 | 0.00 | 79 | 1018.6 |
| 20260509231513 | 51 | 66 | 0.0 | 2.0 | 0.00 | 0.00 | 0.00 | 79 | 1018.7 |
| 20260509230018 | 51 | 66 | 0.0 | 2.0 | 0.00 | 0.00 | 0.00 | 78 | 1018.7 |
| 20260509224510 | 51 | 66 | 0.0 | 2.0 | 0.00 | 0.00 | 0.00 | 78 | 1018.5 |
| 20260509223011 | 51 | 66 | 0.0 | 2.0 | 0.00 | 0.00 | 0.00 | 77 | 1018.5 |
| 20260509221508 | 52 | 66 | 1.0 | 2.0 | 0.00 | 0.00 | 0.00 | 77 | 1018.6 |
| 20260509220010 | 52 | 66 | 1.0 | 3.0 | 0.00 | 0.00 | 0.00 | 76 | 1018.6 |
| 20260509214507 | 52 | 66 | 1.0 | 3.0 | 0.00 | 0.00 | 0.00 | 75 | 1018.5 |
| 20260509213008 | 52 | 66 | 1.0 | 3.0 | 0.00 | 0.00 | 0.00 | 74 | 1018.6 |
| 20260509211508 | 52 | 66 | 1.0 | 3.0 | 0.00 | 0.00 | 0.00 | 72 | 1018.4 |
| 20260509210015 | 53 | 66 | 1.0 | 3.0 | 0.00 | 0.00 | 0.00 | 70 | 1018.3 |
| 20260509204506 | 53 | 66 | 1.0 | 3.0 | 0.00 | 0.00 | 0.00 | 67 | 1018.2 |
| 20260509203007 | 53 | 66 | 1.0 | 3.0 | 0.00 | 0.00 | 0.00 | 65 | 1018.2 |
| 20260509201504 | 54 | 66 | 1.0 | 3.0 | 0.00 | 0.00 | 0.00 | 63 | 1018.2 |
| 20260509200005 | 54 | 66 | 1.0 | 3.0 | 0.00 | 0.00 | 0.00 | 62 | 1018.1 |
| 20260509194503 | 54 | 66 | 1.0 | 3.0 | 0.00 | 0.00 | 0.00 | 62 | 1017.9 |
| 20260509193002 | 55 | 66 | 1.0 | 2.0 | 0.00 | 0.00 | 0.00 | 61 | 1017.9 |
| 20260509191501 | 56 | 66 | 1.0 | 3.0 | 0.00 | 0.00 | 0.00 | 61 | 1017.8 |
| 20260509190002 | 57 | 67 | 1.0 | 2.0 | 0.00 | 0.00 | 0.00 | 60 | 1017.8 |
| 20260509184609 | 57 | 67 | 0.0 | 3.0 | 0.00 | 0.00 | 0.00 | 59 | 1017.8 |
| 20260509183100 | 58 | 66 | 1.0 | 2.0 | 0.00 | 0.00 | 0.00 | 58 | 1017.8 |
| 20260509181559 | 59 | 67 | 1.0 | 2.0 | 0.00 | 0.00 | 0.00 | 56 | 1017.7 |
| 20260509180059 | 60 | 67 | 1.0 | 3.0 | 0.00 | 0.00 | 0.00 | 55 | 1017.7 |
| 20260509174601 | 61 | 67 | 1.0 | 3.0 | 0.00 | 0.00 | 0.00 | 56 | 1017.5 |
| 20260509173107 | 62 | 67 | 1.0 | 3.0 | 0.00 | 0.00 | 0.00 | 55 | 1017.4 |
| 20260509171622 | 63 | 67 | 1.0 | 4.0 | 0.00 | 0.00 | 0.00 | 53 | 1017.3 |
| 20260509170055 | 64 | 61 | 1.0 | 3.0 | 0.00 | 0.00 | 0.00 | 52 | 1017.3 |
| 20260509164554 | 65 | 60 | 1.0 | 3.0 | 0.00 | 0.00 | 0.00 | 51 | 1017.4 |
| 20260509163107 | 66 | 67 | 1.0 | 3.0 | 0.00 | 0.00 | 0.00 | 53 | 1017.5 |
| 20260509161554 | 66 | 76 | 1.0 | 3.0 | 0.00 | 0.00 | 0.00 | 52 | 1017.4 |
| 20260509160051 | 67 | 69 | 0.0 | 2.0 | 0.00 | 0.00 | 0.00 | 54 | 1017.4 |
| 20260509154551 | 67 | 55 | 1.0 | 3.0 | 0.00 | 0.00 | 0.00 | 51 | 1017.5 |
| 20260509153051 | 68 | 61 | 0.0 | 3.0 | 0.00 | 0.00 | 0.00 | 55 | 1017.7 |
| 20260509151547 | 69 | 65 | 0.0 | 3.0 | 0.00 | 0.00 | 0.00 | 52 | 1017.8 |
| 20260509144639 | 69 | 71 | 1.0 | 3.0 | 0.00 | 0.00 | 0.00 | 50 | 1017.8 |
| 20260509143048 | 69 | 65 | 1.0 | 3.0 | 0.00 | 0.00 | 0.00 | 51 | 1017.6 |
| 20260509141545 | 71 | 66 | 0.0 | 3.0 | 0.00 | 0.00 | 0.00 | 51 | 1017.5 |
| 20260509140042 | 71 | 71 | 0.0 | 3.0 | 0.00 | 0.00 | 0.00 | 54 | 1017.5 |
| 20260509134543 | 70 | 72 | 1.0 | 3.0 | 0.00 | 0.00 | 0.00 | 47 | 1017.5 |
| 20260509133041 | 70 | 53 | 1.0 | 3.0 | 0.00 | 0.00 | 0.00 | 50 | 1017.6 |
| 20260509131542 | 69 | 40 | 1.0 | 2.0 | 0.00 | 0.00 | 0.00 | 50 | 1017.6 |
| 20260509130038 | 70 | 38 | 0.0 | 3.0 | 0.00 | 0.00 | 0.00 | 48 | 1017.7 |
| 20260509124552 | 71 | 46 | 1.0 | 3.0 | 0.00 | 0.00 | 0.00 | 49 | 1017.9 |
| 20260509123033 | 71 | 55 | 1.0 | 2.0 | 0.00 | 0.00 | 0.00 | 47 | 1018.0 |
| 20260509121533 | 70 | 48 | 0.0 | 2.0 | 0.00 | 0.00 | 0.00 | 50 | 1018.2 |
| 20260509120028 | 69 | 86 | 0.0 | 3.0 | 0.00 | 0.00 | 0.00 | 53 | 1018.3 |
| 20260509114525 | 68 | 131 | 1.0 | 7.0 | 0.00 | 0.00 | 0.00 | 51 | 1018.5 |
| 20260509113023 | 68 | 52 | 0.0 | 2.0 | 0.00 | 0.00 | 0.00 | 54 | 1018.5 |
| 20260509111521 | 69 | 51 | 0.0 | 2.0 | 0.00 | 0.00 | 0.00 | 54 | 1018.7 |
| 20260509110020 | 69 | 54 | 0.0 | 2.0 | 0.00 | 0.00 | 0.00 | 53 | 1018.9 |
| 20260509104530 | 69 | 74 | 0.0 | 3.0 | 0.00 | 0.00 | 0.00 | 54 | 1019.0 |
| 20260509103015 | 69 | 49 | 0.0 | 2.0 | 0.00 | 0.00 | 0.00 | 55 | 1019.0 |
| 20260509101516 | 68 | 50 | 0.0 | 2.0 | 0.00 | 0.00 | 0.00 | 60 | 1019.2 |
| 20260509100024 | 67 | 42 | 1.0 | 2.0 | 0.00 | 0.00 | 0.00 | 57 | 1019.2 |
| 20260509094517 | 66 | 42 | 0.0 | 3.0 | 0.00 | 0.00 | 0.00 | 60 | 1019.2 |
| 20260509093005 | 66 | 51 | 1.0 | 3.0 | 0.00 | 0.00 | 0.00 | 60 | 1019.3 |
| 20260509091504 | 66 | 107 | 0.0 | 2.0 | 0.00 | 0.00 | 0.00 | 66 | 1019.4 |
| 20260509090000 | 65 | 118 | 0.0 | 2.0 | 0.00 | 0.00 | 0.00 | 65 | 1019.3 |
| 20260509084602 | 64 | 119 | 0.0 | 2.0 | 0.00 | 0.00 | 0.00 | 69 | 1019.3 |
| 20260509083054 | 63 | 119 | 0.0 | 2.0 | 0.00 | 0.00 | 0.00 | 70 | 1019.4 |
| 20260509081550 | 61 | 119 | 0.0 | 2.0 | 0.00 | 0.00 | 0.00 | 74 | 1019.4 |